Year,Month,Day,Hour,Minute,Value (Times are PST for temperature in C)
2018,08,06,00,00,16.20
2018,08,06,00,01,16.20
2018,08,06,00,02,16.20
2018,08,06,00,03,16.20
2018,08,06,00,04,16.20
2018,08,06,00,05,16.20
2018,08,06,00,06,16.20
2018,08,06,00,07,16.20
2018,08,06,00,08,16.20
2018,08,06,00,09,16.20
2018,08,06,00,10,16.10
2018,08,06,00,11,16.10
2018,08,06,00,12,16.10
2018,08,06,00,13,16.10
2018,08,06,00,14,16.10
2018,08,06,00,15,16.10
2018,08,06,00,16,16.10
2018,08,06,00,17,16.10
2018,08,06,00,18,16.10
2018,08,06,00,19,16.10
2018,08,06,00,20,16.10
2018,08,06,00,21,16.00
2018,08,06,00,22,16.00
2018,08,06,00,23,16.00
2018,08,06,00,24,16.00
2018,08,06,00,25,16.00
2018,08,06,00,26,16.00
2018,08,06,00,27,15.90
2018,08,06,00,28,15.90
2018,08,06,00,29,15.90
2018,08,06,00,30,15.90
2018,08,06,00,31,15.90
2018,08,06,00,32,15.90
2018,08,06,00,33,15.90
2018,08,06,00,34,15.90
2018,08,06,00,35,15.90
2018,08,06,00,36,15.80
2018,08,06,00,37,15.80
2018,08,06,00,38,15.80
2018,08,06,00,39,15.80
2018,08,06,00,40,15.80
2018,08,06,00,41,15.80
2018,08,06,00,42,15.80
2018,08,06,00,43,15.70
2018,08,06,00,44,15.70
2018,08,06,00,45,15.70
2018,08,06,00,46,15.70
2018,08,06,00,47,15.70
2018,08,06,00,48,15.70
2018,08,06,00,49,15.70
2018,08,06,00,50,15.70
2018,08,06,00,51,15.70
2018,08,06,00,52,15.70
2018,08,06,00,53,15.70
2018,08,06,00,54,15.80
2018,08,06,00,55,15.80
2018,08,06,00,56,15.80
2018,08,06,00,57,15.80
2018,08,06,00,58,15.80
2018,08,06,00,59,15.80
2018,08,06,01,00,15.80
2018,08,06,01,01,15.80
2018,08,06,01,02,15.80
2018,08,06,01,03,15.80
2018,08,06,01,04,15.80
2018,08,06,01,05,15.80
2018,08,06,01,06,15.70
2018,08,06,01,07,15.70
2018,08,06,01,08,15.70
2018,08,06,01,09,15.70
2018,08,06,01,10,15.70
2018,08,06,01,11,15.60
2018,08,06,01,12,15.60
2018,08,06,01,13,15.60
2018,08,06,01,14,15.60
2018,08,06,01,15,15.60
2018,08,06,01,16,15.60
2018,08,06,01,17,15.60
2018,08,06,01,18,15.60
2018,08,06,01,19,15.60
2018,08,06,01,20,15.50
2018,08,06,01,21,15.50
2018,08,06,01,22,15.50
2018,08,06,01,23,15.50
2018,08,06,01,24,15.50
2018,08,06,01,25,15.50
2018,08,06,01,26,15.40
2018,08,06,01,27,15.40
2018,08,06,01,28,15.40
2018,08,06,01,29,15.40
2018,08,06,01,30,15.40
2018,08,06,01,31,15.40
2018,08,06,01,32,15.40
2018,08,06,01,33,15.40
2018,08,06,01,34,15.40
2018,08,06,01,35,15.40
2018,08,06,01,36,15.40
2018,08,06,01,37,15.40
2018,08,06,01,38,15.40
2018,08,06,01,39,15.40
2018,08,06,01,40,15.40
2018,08,06,01,41,15.40
2018,08,06,01,42,15.40
2018,08,06,01,43,15.40
2018,08,06,01,44,15.30
2018,08,06,01,45,15.30
2018,08,06,01,46,15.30
2018,08,06,01,47,15.30
2018,08,06,01,48,15.30
2018,08,06,01,49,15.30
2018,08,06,01,50,15.20
2018,08,06,01,51,15.20
2018,08,06,01,52,15.20
2018,08,06,01,53,15.20
2018,08,06,01,54,15.20
2018,08,06,01,55,15.20
2018,08,06,01,56,15.10
2018,08,06,01,57,15.10
2018,08,06,01,58,15.10
2018,08,06,01,59,15.10
2018,08,06,02,00,15.10
2018,08,06,02,01,15.10
2018,08,06,02,02,15.10
2018,08,06,02,03,15.10
2018,08,06,02,04,15.10
2018,08,06,02,05,15.10
2018,08,06,02,06,15.00
2018,08,06,02,07,15.00
2018,08,06,02,08,15.00
2018,08,06,02,09,15.00
2018,08,06,02,10,15.00
2018,08,06,02,11,15.00
2018,08,06,02,12,14.90
2018,08,06,02,13,14.90
2018,08,06,02,14,14.90
2018,08,06,02,15,14.90
2018,08,06,02,16,14.90
2018,08,06,02,17,14.90
2018,08,06,02,18,14.90
2018,08,06,02,19,14.90
2018,08,06,02,20,14.90
2018,08,06,02,21,14.90
2018,08,06,02,22,14.90
2018,08,06,02,23,14.90
2018,08,06,02,24,14.90
2018,08,06,02,25,14.90
2018,08,06,02,26,14.90
2018,08,06,02,27,14.90
2018,08,06,02,28,14.90
2018,08,06,02,29,14.90
2018,08,06,02,30,14.80
2018,08,06,02,31,14.80
2018,08,06,02,32,14.80
2018,08,06,02,33,14.80
2018,08,06,02,34,14.80
2018,08,06,02,35,14.80
2018,08,06,02,36,14.80
2018,08,06,02,37,14.80
2018,08,06,02,38,14.70
2018,08,06,02,39,14.70
2018,08,06,02,40,14.70
2018,08,06,02,41,14.70
2018,08,06,02,42,14.70
2018,08,06,02,43,14.70
2018,08,06,02,44,14.70
2018,08,06,02,45,14.70
2018,08,06,02,46,14.70
2018,08,06,02,47,14.70
2018,08,06,02,48,14.70
2018,08,06,02,49,14.70
2018,08,06,02,50,14.70
2018,08,06,02,51,14.70
2018,08,06,02,52,14.70
2018,08,06,02,53,14.70
2018,08,06,02,54,14.70
2018,08,06,02,55,14.70
2018,08,06,02,56,14.70
2018,08,06,02,57,14.70
2018,08,06,02,58,14.70
2018,08,06,02,59,14.70
2018,08,06,03,00,14.60
2018,08,06,03,01,14.60
2018,08,06,03,02,14.60
2018,08,06,03,03,14.50
2018,08,06,03,04,14.50
2018,08,06,03,05,14.50
2018,08,06,03,06,14.40
2018,08,06,03,07,14.40
2018,08,06,03,08,14.40
2018,08,06,03,09,14.40
2018,08,06,03,10,14.30
2018,08,06,03,11,14.30
2018,08,06,03,12,14.30
2018,08,06,03,13,14.30
2018,08,06,03,14,14.30
2018,08,06,03,15,14.30
2018,08,06,03,16,14.30
2018,08,06,03,17,14.30
2018,08,06,03,18,14.30
2018,08,06,03,19,14.30
2018,08,06,03,20,14.20
2018,08,06,03,21,14.20
2018,08,06,03,22,14.20
2018,08,06,03,23,14.20
2018,08,06,03,24,14.20
2018,08,06,03,25,14.20
2018,08,06,03,26,14.20
2018,08,06,03,27,14.20
2018,08,06,03,28,14.20
2018,08,06,03,29,14.20
2018,08,06,03,30,14.20
2018,08,06,03,31,14.20
2018,08,06,03,32,14.20
2018,08,06,03,33,14.20
2018,08,06,03,34,14.20
2018,08,06,03,35,14.10
2018,08,06,03,36,14.10
2018,08,06,03,37,14.10
2018,08,06,03,38,14.10
2018,08,06,03,39,14.10
2018,08,06,03,40,14.10
2018,08,06,03,41,14.10
2018,08,06,03,42,14.10
2018,08,06,03,43,14.10
2018,08,06,03,44,14.10
2018,08,06,03,45,14.10
2018,08,06,03,46,14.10
2018,08,06,03,47,14.10
2018,08,06,03,48,14.00
2018,08,06,03,49,14.00
2018,08,06,03,50,14.00
2018,08,06,03,51,14.00
2018,08,06,03,52,14.00
2018,08,06,03,53,14.00
2018,08,06,03,54,14.00
2018,08,06,03,55,14.00
2018,08,06,03,56,14.00
2018,08,06,03,57,14.00
2018,08,06,03,58,14.00
2018,08,06,03,59,14.00
2018,08,06,04,00,14.00
2018,08,06,04,01,14.00
2018,08,06,04,02,14.00
2018,08,06,04,03,14.00
2018,08,06,04,04,14.00
2018,08,06,04,05,14.00
2018,08,06,04,06,14.00
2018,08,06,04,07,14.00
2018,08,06,04,08,14.00
2018,08,06,04,09,14.00
2018,08,06,04,10,14.00
2018,08,06,04,11,14.00
2018,08,06,04,12,14.00
2018,08,06,04,13,14.00
2018,08,06,04,14,14.00
2018,08,06,04,15,14.00
2018,08,06,04,16,14.00
2018,08,06,04,17,13.90
2018,08,06,04,18,13.90
2018,08,06,04,19,13.90
2018,08,06,04,20,13.90
2018,08,06,04,21,13.90
2018,08,06,04,22,13.80
2018,08,06,04,23,13.80
2018,08,06,04,24,13.80
2018,08,06,04,25,13.90
2018,08,06,04,26,13.90
2018,08,06,04,27,13.90
2018,08,06,04,28,13.90
2018,08,06,04,29,13.90
2018,08,06,04,30,13.90
2018,08,06,04,31,13.90
2018,08,06,04,32,13.90
2018,08,06,04,33,13.90
2018,08,06,04,34,13.80
2018,08,06,04,35,13.80
2018,08,06,04,36,13.80
2018,08,06,04,37,13.80
2018,08,06,04,38,13.80
2018,08,06,04,39,13.80
2018,08,06,04,40,13.80
2018,08,06,04,41,13.80
2018,08,06,04,42,13.80
2018,08,06,04,43,13.80
2018,08,06,04,44,13.80
2018,08,06,04,45,13.80
2018,08,06,04,46,13.80
2018,08,06,04,47,13.80
2018,08,06,04,48,13.80
2018,08,06,04,49,13.70
2018,08,06,04,50,13.70
2018,08,06,04,51,13.70
2018,08,06,04,52,13.70
2018,08,06,04,53,13.70
2018,08,06,04,54,13.70
2018,08,06,04,55,13.60
2018,08,06,04,56,13.60
2018,08,06,04,57,13.60
2018,08,06,04,58,13.60
2018,08,06,04,59,13.60
2018,08,06,05,00,13.60
2018,08,06,05,01,13.60
2018,08,06,05,02,13.60
2018,08,06,05,03,13.50
2018,08,06,05,04,13.50
2018,08,06,05,05,13.50
2018,08,06,05,06,13.50
2018,08,06,05,07,13.40
2018,08,06,05,08,13.40
2018,08,06,05,09,13.40
2018,08,06,05,10,13.40
2018,08,06,05,11,13.40
2018,08,06,05,12,13.40
2018,08,06,05,13,13.40
2018,08,06,05,14,13.40
2018,08,06,05,15,13.30
2018,08,06,05,16,13.30
2018,08,06,05,17,13.30
2018,08,06,05,18,13.30
2018,08,06,05,19,13.30
2018,08,06,05,20,13.30
2018,08,06,05,21,13.30
2018,08,06,05,22,13.30
2018,08,06,05,23,13.30
2018,08,06,05,24,13.30
2018,08,06,05,25,13.30
2018,08,06,05,26,13.30
2018,08,06,05,27,13.30
2018,08,06,05,28,13.30
2018,08,06,05,29,13.30
2018,08,06,05,30,13.30
2018,08,06,05,31,13.20
2018,08,06,05,32,13.20
2018,08,06,05,33,13.20
2018,08,06,05,34,13.20
2018,08,06,05,35,13.20
2018,08,06,05,36,13.20
2018,08,06,05,37,13.20
2018,08,06,05,38,13.20
2018,08,06,05,39,13.20
2018,08,06,05,40,13.20
2018,08,06,05,41,13.20
2018,08,06,05,42,13.20
2018,08,06,05,43,13.20
2018,08,06,05,44,13.20
2018,08,06,05,45,13.20
2018,08,06,05,46,13.10
2018,08,06,05,47,13.10
2018,08,06,05,48,13.10
2018,08,06,05,49,13.10
2018,08,06,05,50,13.10
2018,08,06,05,51,13.10
2018,08,06,05,52,13.10
2018,08,06,05,53,13.10
2018,08,06,05,54,13.10
2018,08,06,05,55,13.10
2018,08,06,05,56,13.00
2018,08,06,05,57,13.00
2018,08,06,05,58,13.00
2018,08,06,05,59,13.00
2018,08,06,06,00,12.90
2018,08,06,06,01,12.90
2018,08,06,06,02,12.90
2018,08,06,06,03,12.90
2018,08,06,06,04,12.90
2018,08,06,06,05,12.90
2018,08,06,06,06,12.90
2018,08,06,06,07,12.90
2018,08,06,06,08,12.90
2018,08,06,06,09,12.90
2018,08,06,06,10,12.90
2018,08,06,06,11,12.90
2018,08,06,06,12,12.90
2018,08,06,06,13,12.90
2018,08,06,06,14,12.90
2018,08,06,06,15,12.90
2018,08,06,06,16,12.90
2018,08,06,06,17,12.90
2018,08,06,06,18,12.90
2018,08,06,06,19,12.90
2018,08,06,06,20,12.90
2018,08,06,06,21,12.90
2018,08,06,06,22,12.90
2018,08,06,06,23,12.90
2018,08,06,06,24,12.90
2018,08,06,06,25,12.90
2018,08,06,06,26,12.90
2018,08,06,06,27,12.90
2018,08,06,06,28,12.90
2018,08,06,06,29,12.90
2018,08,06,06,30,12.90
2018,08,06,06,31,12.90
2018,08,06,06,32,12.90
2018,08,06,06,33,13.00
2018,08,06,06,34,13.00
2018,08,06,06,35,13.00
2018,08,06,06,36,13.10
2018,08,06,06,37,13.10
2018,08,06,06,38,13.10
2018,08,06,06,39,13.10
2018,08,06,06,40,13.10
2018,08,06,06,41,13.10
2018,08,06,06,42,13.20
2018,08,06,06,43,13.20
2018,08,06,06,44,13.20
2018,08,06,06,45,13.20
2018,08,06,06,46,13.20
2018,08,06,06,47,13.20
2018,08,06,06,48,13.20
2018,08,06,06,49,13.20
2018,08,06,06,50,13.30
2018,08,06,06,51,13.30
2018,08,06,06,52,13.30
2018,08,06,06,53,13.40
2018,08,06,06,54,13.40
2018,08,06,06,55,13.40
2018,08,06,06,56,13.50
2018,08,06,06,57,13.50
2018,08,06,06,58,13.60
2018,08,06,06,59,13.70
2018,08,06,07,00,13.70
2018,08,06,07,01,13.80
2018,08,06,07,02,13.80
2018,08,06,07,03,13.90
2018,08,06,07,04,14.00
2018,08,06,07,05,14.00
2018,08,06,07,06,14.10
2018,08,06,07,07,14.10
2018,08,06,07,08,14.20
2018,08,06,07,09,14.20
2018,08,06,07,10,14.30
2018,08,06,07,11,14.30
2018,08,06,07,12,14.30
2018,08,06,07,13,14.40
2018,08,06,07,14,14.40
2018,08,06,07,15,14.40
2018,08,06,07,16,14.50
2018,08,06,07,17,14.60
2018,08,06,07,18,14.60
2018,08,06,07,19,14.70
2018,08,06,07,20,14.70
2018,08,06,07,21,14.80
2018,08,06,07,22,14.80
2018,08,06,07,23,14.80
2018,08,06,07,24,14.90
2018,08,06,07,25,15.00
2018,08,06,07,26,15.10
2018,08,06,07,27,15.10
2018,08,06,07,28,15.20
2018,08,06,07,29,15.20
2018,08,06,07,30,15.30
2018,08,06,07,31,15.30
2018,08,06,07,32,15.30
2018,08,06,07,33,15.30
2018,08,06,07,34,15.30
2018,08,06,07,35,15.30
2018,08,06,07,36,15.30
2018,08,06,07,37,15.30
2018,08,06,07,38,15.30
2018,08,06,07,39,15.30
2018,08,06,07,40,15.40
2018,08,06,07,41,15.40
2018,08,06,07,42,15.40
2018,08,06,07,43,15.50
2018,08,06,07,44,15.50
2018,08,06,07,45,15.60
2018,08,06,07,46,15.70
2018,08,06,07,47,15.80
2018,08,06,07,48,15.90
2018,08,06,07,49,16.00
2018,08,06,07,50,16.10
2018,08,06,07,51,16.20
2018,08,06,07,52,16.30
2018,08,06,07,53,16.50
2018,08,06,07,54,16.60
2018,08,06,07,55,16.70
2018,08,06,07,56,16.70
2018,08,06,07,57,16.70
2018,08,06,07,58,16.80
2018,08,06,07,59,16.80
2018,08,06,08,00,16.80
2018,08,06,08,01,16.90
2018,08,06,08,02,17.00
2018,08,06,08,03,17.00
2018,08,06,08,04,17.10
2018,08,06,08,05,17.20
2018,08,06,08,06,17.20
2018,08,06,08,07,17.30
2018,08,06,08,08,17.30
2018,08,06,08,09,17.30
2018,08,06,08,10,17.40
2018,08,06,08,11,17.50
2018,08,06,08,12,17.50
2018,08,06,08,13,17.60
2018,08,06,08,14,17.70
2018,08,06,08,15,17.80
2018,08,06,08,16,17.80
2018,08,06,08,17,17.80
2018,08,06,08,18,17.90
2018,08,06,08,19,17.90
2018,08,06,08,20,17.90
2018,08,06,08,21,18.00
2018,08,06,08,22,18.10
2018,08,06,08,23,18.10
2018,08,06,08,24,18.20
2018,08,06,08,25,18.40
2018,08,06,08,26,18.50
2018,08,06,08,27,18.50
2018,08,06,08,28,18.60
2018,08,06,08,29,18.70
2018,08,06,08,30,18.70
2018,08,06,08,31,18.70
2018,08,06,08,32,18.70
2018,08,06,08,33,18.80
2018,08,06,08,34,18.80
2018,08,06,08,35,18.90
2018,08,06,08,36,18.90
2018,08,06,08,37,18.90
2018,08,06,08,38,19.00
2018,08,06,08,39,19.10
2018,08,06,08,40,19.10
2018,08,06,08,41,19.20
2018,08,06,08,42,19.20
2018,08,06,08,43,19.20
2018,08,06,08,44,19.20
2018,08,06,08,45,19.30
2018,08,06,08,46,19.40
2018,08,06,08,47,19.40
2018,08,06,08,48,19.40
2018,08,06,08,49,19.40
2018,08,06,08,50,19.50
2018,08,06,08,51,19.50
2018,08,06,08,52,19.50
2018,08,06,08,53,19.50
2018,08,06,08,54,19.60
2018,08,06,08,55,19.60
2018,08,06,08,56,19.70
2018,08,06,08,57,19.80
2018,08,06,08,58,19.80
2018,08,06,08,59,19.80
2018,08,06,09,00,19.90
2018,08,06,09,01,19.90
2018,08,06,09,02,19.90
2018,08,06,09,03,19.90
2018,08,06,09,04,20.00
2018,08,06,09,05,20.10
2018,08,06,09,06,20.20
2018,08,06,09,07,20.20
2018,08,06,09,08,20.20
2018,08,06,09,09,20.20
2018,08,06,09,10,20.20
2018,08,06,09,11,20.20
2018,08,06,09,12,20.20
2018,08,06,09,13,20.30
2018,08,06,09,14,20.30
2018,08,06,09,15,20.30
2018,08,06,09,16,20.40
2018,08,06,09,17,20.40
2018,08,06,09,18,20.50
2018,08,06,09,19,20.60
2018,08,06,09,20,20.60
2018,08,06,09,21,20.70
2018,08,06,09,22,20.70
2018,08,06,09,23,20.80
2018,08,06,09,24,20.80
2018,08,06,09,25,20.80
2018,08,06,09,26,20.90
2018,08,06,09,27,20.90
2018,08,06,09,28,20.90
2018,08,06,09,29,21.00
2018,08,06,09,30,21.00
2018,08,06,09,31,21.10
2018,08,06,09,32,21.10
2018,08,06,09,33,21.10
2018,08,06,09,34,21.10
2018,08,06,09,35,21.20
2018,08,06,09,36,21.20
2018,08,06,09,37,21.20
2018,08,06,09,38,21.30
2018,08,06,09,39,21.30
2018,08,06,09,40,21.40
2018,08,06,09,41,21.40
2018,08,06,09,42,21.40
2018,08,06,09,43,21.40
2018,08,06,09,44,21.50
2018,08,06,09,45,21.50
2018,08,06,09,46,21.50
2018,08,06,09,47,21.60
2018,08,06,09,48,21.60
2018,08,06,09,49,21.70
2018,08,06,09,50,21.80
2018,08,06,09,51,21.90
2018,08,06,09,52,22.00
2018,08,06,09,53,22.10
2018,08,06,09,54,22.10
2018,08,06,09,55,22.20
2018,08,06,09,56,22.20
2018,08,06,09,57,22.20
2018,08,06,09,58,22.30
2018,08,06,09,59,22.30
2018,08,06,10,00,22.30
2018,08,06,10,01,22.40
2018,08,06,10,02,22.40
2018,08,06,10,03,22.50
2018,08,06,10,04,22.50
2018,08,06,10,05,22.60
2018,08,06,10,06,22.60
2018,08,06,10,07,22.60
2018,08,06,10,08,22.60
2018,08,06,10,09,22.60
2018,08,06,10,10,22.70
2018,08,06,10,11,22.80
2018,08,06,10,12,22.90
2018,08,06,10,13,22.90
2018,08,06,10,14,22.90
2018,08,06,10,15,23.00
2018,08,06,10,16,23.10
2018,08,06,10,17,23.20
2018,08,06,10,18,23.30
2018,08,06,10,19,23.40
2018,08,06,10,20,23.40
2018,08,06,10,21,23.30
2018,08,06,10,22,23.30
2018,08,06,10,23,23.30
2018,08,06,10,24,23.20
2018,08,06,10,25,23.20
2018,08,06,10,26,23.20
2018,08,06,10,27,23.20
2018,08,06,10,28,23.10
2018,08,06,10,29,23.00
2018,08,06,10,30,22.90
2018,08,06,10,31,22.80
2018,08,06,10,32,22.60
2018,08,06,10,33,22.50
2018,08,06,10,34,22.40
2018,08,06,10,35,22.40
2018,08,06,10,36,22.30
2018,08,06,10,37,22.30
2018,08,06,10,38,22.20
2018,08,06,10,39,22.20
2018,08,06,10,40,22.20
2018,08,06,10,41,22.20
2018,08,06,10,42,22.20
2018,08,06,10,43,22.20
2018,08,06,10,44,22.20
2018,08,06,10,45,22.20
2018,08,06,10,46,22.20
2018,08,06,10,47,22.30
2018,08,06,10,48,22.20
2018,08,06,10,49,22.20
2018,08,06,10,50,22.20
2018,08,06,10,51,22.20
2018,08,06,10,52,22.20
2018,08,06,10,53,22.20
2018,08,06,10,54,22.30
2018,08,06,10,55,22.30
2018,08,06,10,56,22.30
2018,08,06,10,57,22.40
2018,08,06,10,58,22.40
2018,08,06,10,59,22.50
2018,08,06,11,00,22.60
2018,08,06,11,01,22.60
2018,08,06,11,02,22.70
2018,08,06,11,03,22.70
2018,08,06,11,04,22.70
2018,08,06,11,05,22.70
2018,08,06,11,06,22.70
2018,08,06,11,07,22.60
2018,08,06,11,08,22.50
2018,08,06,11,09,22.50
2018,08,06,11,10,22.40
2018,08,06,11,11,22.40
2018,08,06,11,12,22.40
2018,08,06,11,13,22.30
2018,08,06,11,14,22.30
2018,08,06,11,15,22.30
2018,08,06,11,16,22.20
2018,08,06,11,17,22.20
2018,08,06,11,18,22.20
2018,08,06,11,19,22.10
2018,08,06,11,20,22.10
2018,08,06,11,21,22.00
2018,08,06,11,22,22.00
2018,08,06,11,23,21.90
2018,08,06,11,24,21.90
2018,08,06,11,25,21.90
2018,08,06,11,26,22.00
2018,08,06,11,27,22.00
2018,08,06,11,28,22.00
2018,08,06,11,29,22.10
2018,08,06,11,30,22.10
2018,08,06,11,31,22.20
2018,08,06,11,32,22.20
2018,08,06,11,33,22.30
2018,08,06,11,34,22.30
2018,08,06,11,35,22.30
2018,08,06,11,36,22.40
2018,08,06,11,37,22.40
2018,08,06,11,38,22.40
2018,08,06,11,39,22.40
2018,08,06,11,40,22.40
2018,08,06,11,41,22.40
2018,08,06,11,42,22.50
2018,08,06,11,43,22.50
2018,08,06,11,44,22.50
2018,08,06,11,45,22.50
2018,08,06,11,46,22.50
2018,08,06,11,47,22.50
2018,08,06,11,48,22.50
2018,08,06,11,49,22.60
2018,08,06,11,50,22.60
2018,08,06,11,51,22.60
2018,08,06,11,52,22.70
2018,08,06,11,53,22.70
2018,08,06,11,54,22.70
2018,08,06,11,55,22.70
2018,08,06,11,56,22.70
2018,08,06,11,57,22.70
2018,08,06,11,58,22.80
2018,08,06,11,59,22.80
2018,08,06,12,00,22.80
2018,08,06,12,01,22.90
2018,08,06,12,02,22.90
2018,08,06,12,03,22.90
2018,08,06,12,04,23.00
2018,08,06,12,05,23.00
2018,08,06,12,06,23.00
2018,08,06,12,07,23.10
2018,08,06,12,08,23.10
2018,08,06,12,09,23.10
2018,08,06,12,10,23.10
2018,08,06,12,11,23.20
2018,08,06,12,12,23.20
2018,08,06,12,13,23.20
2018,08,06,12,14,23.30
2018,08,06,12,15,23.30
2018,08,06,12,16,23.30
2018,08,06,12,17,23.30
2018,08,06,12,18,23.30
2018,08,06,12,19,23.40
2018,08,06,12,20,23.40
2018,08,06,12,21,23.50
2018,08,06,12,22,23.60
2018,08,06,12,23,23.60
2018,08,06,12,24,23.70
2018,08,06,12,25,23.70
2018,08,06,12,26,23.70
2018,08,06,12,27,23.70
2018,08,06,12,28,23.70
2018,08,06,12,29,23.70
2018,08,06,12,30,23.80
2018,08,06,12,31,23.80
2018,08,06,12,32,23.80
2018,08,06,12,33,23.80
2018,08,06,12,34,23.70
2018,08,06,12,35,23.70
2018,08,06,12,36,23.60
2018,08,06,12,37,23.60
2018,08,06,12,38,23.60
2018,08,06,12,39,23.70
2018,08,06,12,40,23.70
2018,08,06,12,41,23.70
2018,08,06,12,42,23.80
2018,08,06,12,43,23.90
2018,08,06,12,44,23.90
2018,08,06,12,45,23.90
2018,08,06,12,46,24.00
2018,08,06,12,47,24.00
2018,08,06,12,48,24.00
2018,08,06,12,49,24.10
2018,08,06,12,50,24.00
2018,08,06,12,51,24.00
2018,08,06,12,52,23.90
2018,08,06,12,53,23.90
2018,08,06,12,54,23.90
2018,08,06,12,55,23.90
2018,08,06,12,56,24.00
2018,08,06,12,57,24.00
2018,08,06,12,58,24.10
2018,08,06,12,59,24.10
2018,08,06,13,00,24.00
2018,08,06,13,01,24.00
2018,08,06,13,02,24.00
2018,08,06,13,03,24.00
2018,08,06,13,04,24.10
2018,08,06,13,05,24.10
2018,08,06,13,06,24.10
2018,08,06,13,07,24.10
2018,08,06,13,08,24.00
2018,08,06,13,09,23.90
2018,08,06,13,10,23.90
2018,08,06,13,11,23.90
2018,08,06,13,12,23.90
2018,08,06,13,13,23.90
2018,08,06,13,14,23.70
2018,08,06,13,15,23.60
2018,08,06,13,16,23.60
2018,08,06,13,17,23.60
2018,08,06,13,18,23.60
2018,08,06,13,19,23.70
2018,08,06,13,20,23.70
2018,08,06,13,21,23.90
2018,08,06,13,22,24.00
2018,08,06,13,23,24.10
2018,08,06,13,24,24.30
2018,08,06,13,25,24.30
2018,08,06,13,26,24.40
2018,08,06,13,27,24.40
2018,08,06,13,28,24.30
2018,08,06,13,29,24.30
2018,08,06,13,30,24.30
2018,08,06,13,31,24.30
2018,08,06,13,32,24.20
2018,08,06,13,33,24.20
2018,08,06,13,34,24.20
2018,08,06,13,35,24.20
2018,08,06,13,36,24.30
2018,08,06,13,37,24.30
2018,08,06,13,38,24.20
2018,08,06,13,39,24.10
2018,08,06,13,40,24.10
2018,08,06,13,41,24.00
2018,08,06,13,42,23.90
2018,08,06,13,43,23.90
2018,08,06,13,44,24.00
2018,08,06,13,45,24.00
2018,08,06,13,46,23.90
2018,08,06,13,47,23.80
2018,08,06,13,48,23.80
2018,08,06,13,49,23.60
2018,08,06,13,50,23.60
2018,08,06,13,51,23.60
2018,08,06,13,52,23.50
2018,08,06,13,53,23.40
2018,08,06,13,54,23.50
2018,08,06,13,55,23.60
2018,08,06,13,56,23.70
2018,08,06,13,57,23.80
2018,08,06,13,58,23.80
2018,08,06,13,59,23.80
2018,08,06,14,00,24.00
2018,08,06,14,01,24.10
2018,08,06,14,02,24.10
2018,08,06,14,03,24.30
2018,08,06,14,04,24.40
2018,08,06,14,05,24.40
2018,08,06,14,06,24.50
2018,08,06,14,07,24.50
2018,08,06,14,08,24.50
2018,08,06,14,09,24.40
2018,08,06,14,10,24.30
2018,08,06,14,11,24.30
2018,08,06,14,12,24.40
2018,08,06,14,13,24.40
2018,08,06,14,14,24.40
2018,08,06,14,15,24.40
2018,08,06,14,16,24.40
2018,08,06,14,17,24.40
2018,08,06,14,18,24.30
2018,08,06,14,19,24.40
2018,08,06,14,20,24.40
2018,08,06,14,21,24.50
2018,08,06,14,22,24.60
2018,08,06,14,23,24.70
2018,08,06,14,24,24.80
2018,08,06,14,25,24.80
2018,08,06,14,26,24.90
2018,08,06,14,27,25.00
2018,08,06,14,28,25.00
2018,08,06,14,29,25.10
2018,08,06,14,30,25.10
2018,08,06,14,31,25.00
2018,08,06,14,32,25.00
2018,08,06,14,33,25.00
2018,08,06,14,34,25.00
2018,08,06,14,35,24.90
2018,08,06,14,36,24.90
2018,08,06,14,37,24.90
2018,08,06,14,38,25.00
2018,08,06,14,39,25.00
2018,08,06,14,40,25.10
2018,08,06,14,41,25.10
2018,08,06,14,42,25.20
2018,08,06,14,43,25.20
2018,08,06,14,44,25.30
2018,08,06,14,45,25.40
2018,08,06,14,46,25.40
2018,08,06,14,47,25.40
2018,08,06,14,48,25.30
2018,08,06,14,49,25.20
2018,08,06,14,50,25.20
2018,08,06,14,51,25.20
2018,08,06,14,52,25.20
2018,08,06,14,53,25.10
2018,08,06,14,54,25.10
2018,08,06,14,55,25.20
2018,08,06,14,56,25.20
2018,08,06,14,57,25.20
2018,08,06,14,58,25.10
2018,08,06,14,59,25.00
2018,08,06,15,00,24.80
2018,08,06,15,01,24.70
2018,08,06,15,02,24.50
2018,08,06,15,03,24.50
2018,08,06,15,04,24.40
2018,08,06,15,05,24.30
2018,08,06,15,06,24.20
2018,08,06,15,07,24.20
2018,08,06,15,08,24.10
2018,08,06,15,09,24.10
2018,08,06,15,10,24.10
2018,08,06,15,11,24.10
2018,08,06,15,12,24.10
2018,08,06,15,13,24.10
2018,08,06,15,14,24.10
2018,08,06,15,15,24.20
2018,08,06,15,16,24.30
2018,08,06,15,17,24.30
2018,08,06,15,18,24.40
2018,08,06,15,19,24.40
2018,08,06,15,20,24.50
2018,08,06,15,21,24.60
2018,08,06,15,22,24.70
2018,08,06,15,23,24.80
2018,08,06,15,24,24.90
2018,08,06,15,25,25.00
2018,08,06,15,26,25.10
2018,08,06,15,27,25.10
2018,08,06,15,28,25.20
2018,08,06,15,29,25.20
2018,08,06,15,30,25.30
2018,08,06,15,31,25.40
2018,08,06,15,32,25.40
2018,08,06,15,33,25.50
2018,08,06,15,34,25.50
2018,08,06,15,35,25.60
2018,08,06,15,36,25.50
2018,08,06,15,37,25.40
2018,08,06,15,38,25.40
2018,08,06,15,39,25.40
2018,08,06,15,40,25.40
2018,08,06,15,41,25.40
2018,08,06,15,42,25.30
2018,08,06,15,43,25.30
2018,08,06,15,44,25.20
2018,08,06,15,45,25.20
2018,08,06,15,46,25.10
2018,08,06,15,47,25.10
2018,08,06,15,48,25.10
2018,08,06,15,49,25.10
2018,08,06,15,50,25.20
2018,08,06,15,51,25.20
2018,08,06,15,52,25.20
2018,08,06,15,53,25.20
2018,08,06,15,54,25.30
2018,08,06,15,55,25.40
2018,08,06,15,56,25.40
2018,08,06,15,57,25.30
2018,08,06,15,58,25.20
2018,08,06,15,59,25.10
2018,08,06,16,00,25.10
2018,08,06,16,01,25.10
2018,08,06,16,02,25.00
2018,08,06,16,03,25.10
2018,08,06,16,04,25.10
2018,08,06,16,05,25.10
2018,08,06,16,06,25.20
2018,08,06,16,07,25.20
2018,08,06,16,08,25.20
2018,08,06,16,09,25.10
2018,08,06,16,10,25.10
2018,08,06,16,11,25.00
2018,08,06,16,12,24.90
2018,08,06,16,13,24.80
2018,08,06,16,14,24.60
2018,08,06,16,15,24.50
2018,08,06,16,16,24.30
2018,08,06,16,17,24.20
2018,08,06,16,18,24.20
2018,08,06,16,19,24.10
2018,08,06,16,20,24.10
2018,08,06,16,21,24.10
2018,08,06,16,22,24.10
2018,08,06,16,23,24.10
2018,08,06,16,24,24.10
2018,08,06,16,25,24.10
2018,08,06,16,26,24.10
2018,08,06,16,27,24.10
2018,08,06,16,28,24.10
2018,08,06,16,29,24.10
2018,08,06,16,30,24.20
2018,08,06,16,31,24.30
2018,08,06,16,32,24.40
2018,08,06,16,33,24.60
2018,08,06,16,34,24.70
2018,08,06,16,35,24.80
2018,08,06,16,36,24.90
2018,08,06,16,37,24.90
2018,08,06,16,38,24.90
2018,08,06,16,39,25.00
2018,08,06,16,40,25.10
2018,08,06,16,41,25.10
2018,08,06,16,42,25.20
2018,08,06,16,43,25.30
2018,08,06,16,44,25.40
2018,08,06,16,45,25.40
2018,08,06,16,46,25.50
2018,08,06,16,47,25.60
2018,08,06,16,48,25.70
2018,08,06,16,49,25.70
2018,08,06,16,50,25.70
2018,08,06,16,51,25.70
2018,08,06,16,52,25.60
2018,08,06,16,53,25.50
2018,08,06,16,54,25.50
2018,08,06,16,55,25.50
2018,08,06,16,56,25.50
2018,08,06,16,57,25.50
2018,08,06,16,58,25.60
2018,08,06,16,59,25.60
2018,08,06,17,00,25.70
2018,08,06,17,01,25.80
2018,08,06,17,02,25.90
2018,08,06,17,03,26.00
2018,08,06,17,04,26.00
2018,08,06,17,05,26.20
2018,08,06,17,06,26.30
2018,08,06,17,07,26.40
2018,08,06,17,08,26.50
2018,08,06,17,09,26.60
2018,08,06,17,10,26.70
2018,08,06,17,11,26.80
2018,08,06,17,12,26.90
2018,08,06,17,13,27.00
2018,08,06,17,14,27.20
2018,08,06,17,15,27.30
2018,08,06,17,16,27.50
2018,08,06,17,17,27.60
2018,08,06,17,18,27.80
2018,08,06,17,19,27.90